[[{"header":{"parameterUnit":"m.s-1","parameterCategory":1,"la1":30.2991,"la2":30.254,"lo1":-89.0895,"lo2":-89.0444,"dy":0.0017,"dx":0.0017,"nx":28,"ny":28,"refTime":"2024-06-19T21:00:00:Z","depth":0,"parameterNumber":2,"parameterNumberName":"U-component_of_WINDS"},"data":[0,0,0,0,0,0,0,0,0,0,0,0,0,0,0,0,0,0,0,0,0,0,0,0,0,0,0,0,0,0,0,0,0,0,0,0,0,0,0,0,0,0,0,0,0,0,0,0,0,0,0,0,0,0,0,0,0,0,-5.7443,-5.7443,0,-5.7404,-5.7404,-5.7404,-5.7241,-5.7237,-5.7234,-5.723,-5.7192,-5.7195,-5.7197,0,0,0,0,0,0,0,0,0,0,0,0,0,-5.7381,-5.7383,-5.7443,-5.7443,-5.7442,-5.7405,-5.7404,-5.7403,-5.7242,-5.7237,-5.7233,-5.7228,-5.7191,-5.7194,-5.7197,0,0,0,0,0,0,0,0,0,0,0,0,0,-5.7382,-5.7383,-5.7443,-5.7357,-5.7349,-5.7405,-5.7404,-5.7403,-5.7243,-5.7237,-5.7231,-5.7226,-5.7191,-5.7194,-5.7198,-5.7334,0,0,-5.7209,-5.7211,0,0,0,0,0,0,0,0,-5.7382,-5.7384,-5.737,-5.7363,-5.7354,-5.7322,-5.7368,-5.738,-5.7244,-5.7283,-5.723,-5.7223,-5.724,-5.7239,-5.7245,-5.7333,-5.7331,-5.721,-5.7212,-5.7214,-5.7215,0,0,0,0,0,0,0,-5.7382,-5.7385,-5.7428,-5.737,-5.736,-5.7321,-5.7315,-5.7369,-5.7294,-5.7279,-5.7267,-5.7265,-5.7235,-5.7241,-5.7243,-5.733,-5.721,-5.7213,-5.7215,-5.7217,-5.7531,-5.7537,0,0,0,0,0,0,-5.7394,-5.7386,-5.7429,-5.7427,-5.7354,-5.7327,-5.732,-5.7338,-5.7293,-5.728,-5.727,-5.7258,-5.7238,-5.7238,-5.7241,-5.7399,-5.7214,-5.7217,-5.7219,-5.7525,-5.7532,-5.7539,0,0,0,0,0,0,-5.7393,-5.7399,-5.7431,-5.7403,-5.7404,-5.7334,-5.7355,-5.734,-5.7347,-5.7286,-5.7272,-5.729,-5.7233,-5.7235,-5.7313,-5.7395,-5.7219,-5.7222,-5.7518,-5.7527,-5.7535,-5.7715,0,0,0,0,0,0,-5.7392,-5.74,-5.745,-5.7405,-5.7406,-5.7503,-5.736,-5.7343,-5.7353,-5.7337,-5.7301,-5.729,-5.7229,-5.7308,-5.7316,-5.7397,-5.7225,-5.751,-5.7522,-5.7532,-5.7702,-5.773,-5.7753,0,0,0,0,0,-5.739,-5.7502,-5.7453,-5.7459,-5.7467,-5.7508,-5.7508,-5.7435,-5.7361,-5.7411,-5.7372,-5.7291,-5.7385,-5.7317,-5.7325,-5.7408,-5.7504,-5.7518,-5.7532,-5.769,-5.7724,-5.7753,0,0,0,0,0,0,-5.7558,-5.7495,-5.744,-5.754,-5.7531,-5.748,-5.7541,-5.7473,-5.7485,-5.7469,-5.7379,-5.7372,-5.7463,-5.7443,-5.7369,-5.7539,-5.7431,-5.7447,-5.7549,-5.758,-5.7606,-5.7609,-5.7228,0,0,0,0,0,-5.7607,-5.7644,-5.7587,-5.7682,-5.768,-5.7612,-5.7627,-5.7572,-5.7558,-5.7554,-5.752,-5.7511,-5.7538,-5.7558,-5.758,-5.7698,-5.7689,-5.776,-5.7786,-5.7807,-5.7822,-5.7885,-5.7916,-5.7584,-5.7583,-5.7583,0,0,-5.7708,-5.7678,-5.7707,-5.7715,-5.77,-5.7743,-5.761,-5.7659,-5.769,-5.7561,-5.7632,-5.7608,-5.7592,-5.7691,-5.7733,-5.7677,-5.7912,-5.7824,-5.7842,-5.7845,-5.7902,-5.7934,-5.7962,-5.7593,-5.7591,-5.759,0,0,-5.7913,-5.7894,-5.7971,-5.7961,-5.7941,-5.7896,-5.7915,-5.7876,-5.7855,-5.7925,-5.783,-5.7865,-5.7914,-5.7907,-5.791,-5.8117,-5.8043,-5.8126,-5.8261,-5.8323,-5.835,-5.8372,-5.8447,-5.8475,-5.8141,-5.8142,-5.8142,0,-5.8041,-5.81,-5.802,-5.8076,-5.8083,-5.7969,-5.8048,-5.8042,-5.8031,-5.8039,-5.7977,-5.8037,-5.8018,-5.8115,-5.8165,-5.8171,-5.8191,-5.8129,-5.8352,-5.8374,-5.8394,-5.8465,-5.8493,-5.8152,-5.8151,-5.815,-5.8149,0,-5.8259,-5.8302,-5.8367,-5.836,-5.8374,-5.8442,-5.8373,-5.8397,-5.8342,-5.8304,-5.8378,-5.8352,-5.8367,-5.8386,-5.8332,-5.8477,-5.8443,-5.8368,-5.8257,-5.8438,-5.8503,-5.8529,-5.8167,-5.8163,-5.816,-5.8158,0,0,-5.8568,-5.8517,-5.8543,-5.8539,-5.8511,-5.8542,-5.8606,-5.862,-5.8644,-5.8641,-5.8693,-5.8738,-5.867,-5.8673,-5.8618,-5.8673,-5.884,-5.8591,-5.8589,-5.8639,-5.8999,-5.9056,-5.9089,-5.8791,-5.8796,-5.88,-5.9001,0,-5.8764,-5.8869,-5.88,-5.8916,-5.8955,-5.8849,-5.8904,-5.8894,-5.8861,-5.8891,-5.8854,-5.8888,-5.8794,-5.8796,-5.8846,-5.8809,-5.8911,-5.8794,-5.884,-5.8843,-5.8848,-5.9122,-5.9182,-5.9373,-5.9026,-5.903,-5.9033,0,-5.9007,-5.9016,-5.9136,-5.9102,-5.9116,-5.9167,-5.9176,-5.9206,-5.9193,-5.9165,-5.9171,-5.9102,-5.9163,-5.9055,-5.9139,-5.9061,-5.9076,-5.9062,-5.9067,-5.9069,-5.8949,-5.9132,-5.9432,-5.9461,-5.9072,-5.9069,-5.9066,0,-5.9222,-5.9264,-5.9341,-5.9341,-5.9303,-5.9342,-5.9328,-5.9309,-5.9324,-5.9332,-5.9341,-5.9357,-5.9366,-5.9381,-5.9319,-5.9246,-5.9412,-5.9298,-5.9392,-5.9394,-5.9432,-5.943,-5.9739,-5.9441,-5.9441,-5.944,-5.944,0,-5.9449,-5.9527,-5.9437,-5.9485,-5.957,-5.9492,-5.9578,-5.9553,-5.9538,-5.958,-5.949,-5.9531,-5.9447,-5.9481,-5.9433,-5.9511,-5.9516,-5.9496,-5.9483,-5.9505,-5.9507,-5.9513,-5.9499,-5.9448,-5.9446,-5.9445,-5.9444,0,-5.9702,-5.9645,-5.9723,-5.9682,-5.9673,-5.9738,-5.9702,-5.9746,-5.9708,-5.9763,-5.9771,-5.9711,-5.9747,-5.9687,-5.9715,-5.9683,-5.9792,-5.9758,-5.9797,-5.9787,-5.9884,-5.9876,-6.0208,-6.0248,-5.9925,-5.9928,-5.993,0,-5.9851,-5.9908,-5.9874,-5.9896,-5.9887,-5.9923,-5.9937,-5.9863,-5.9882,-5.9873,-5.9919,-5.9946,-5.9964,-6.0026,-5.9986,-6.0008,-5.9974,-6.0088,-5.9976,-5.9997,-5.9977,-5.9974,-5.998,-6.0112,-6.0115,-6.0119,-6.0121,0,-6.0121,-6.0091,-6.0115,-6.013,-6.015,-6.0159,-6.016,-6.0184,-6.0105,-6.0132,-6.0167,-6.0181,-6.021,-6.024,-6.0252,-6.0238,-6.0168,-6.0157,-6.018,-6.0203,-6.0224,-6.0215,-5.986,-6.015,-6.0147,-6.0145,-6.0143,-6.0142,-6.0327,-6.0374,-6.0358,-6.0388,-6.0382,-6.0387,-6.0426,-6.0394,-6.0421,-6.0439,-6.0394,-6.0441,-6.0428,-6.0437,-6.0432,-6.0468,-6.0418,-6.0451,-6.0459,-6.0469,-6.0485,-6.0218,-6.047,-6.0469,-6.0469,-6.0468,-6.0467,0,-6.0593,-6.0578,-6.0607,-6.0613,-6.0638,-6.057,-6.0569,-6.0594,-6.0636,-6.0631,-6.0651,-6.0693,-6.0722,-6.0685,-6.0707,-6.0744,-6.0712,-6.0752,-6.0749,-6.0748,-6.0528,-6.0506,-6.0778,-6.0778,-6.0778,-6.0778,-6.0777,-6.0777,-6.0735,-6.0812,-6.078,-6.0854,-6.0838,-6.0883,-6.0889,-6.0893,-6.0889,-6.0939,-6.0963,-6.0939,-6.0921,-6.0942,-6.0966,-6.0955,-6.0968,-6.102,-6.0997,-6.0793,-6.0763,-6.0734,-6.0713,-6.1023,-6.1023,-6.1213,-6.1215,-6.1216]},{"header":{"parameterUnit":"m.s-1","parameterCategory":1,"la1":30.2991,"la2":30.254,"lo1":-89.0895,"lo2":-89.0444,"dy":0.0017,"dx":0.0017,"nx":28,"ny":28,"refTime":"2024-06-19T21:00:00:Z","depth":0,"parameterNumber":3,"parameterNumberName":"V-component_of_WINDS"},"data":[0,0,0,0,0,0,0,0,0,0,0,0,0,0,0,0,0,0,0,0,0,0,0,0,0,0,0,0,0,0,0,0,0,0,0,0,0,0,0,0,0,0,0,0,0,0,0,0,0,0,0,0,0,0,0,0,0,0,1.606,1.6059,0,1.6039,1.6039,1.6039,1.6073,1.6074,1.6075,1.6077,1.6048,1.6047,1.6045,0,0,0,0,0,0,0,0,0,0,0,0,0,1.6123,1.6122,1.606,1.6059,1.6059,1.6039,1.6039,1.6039,1.6073,1.6074,1.6076,1.6077,1.6049,1.6047,1.6045,0,0,0,0,0,0,0,0,0,0,0,0,0,1.6098,1.6121,1.606,1.6074,1.6075,1.6039,1.6039,1.6039,1.6073,1.6074,1.6076,1.6078,1.605,1.6047,1.6044,1.5991,0,0,1.6036,1.6035,0,0,0,0,0,0,0,0,1.6099,1.6096,1.6072,1.6073,1.6074,1.6061,1.6051,1.6023,1.6072,1.6073,1.6077,1.6079,1.6051,1.6048,1.604,1.599,1.5989,1.6036,1.6034,1.6033,1.6032,0,0,0,0,0,0,0,1.6101,1.6097,1.6051,1.6072,1.6073,1.608,1.6078,1.6046,1.6052,1.6073,1.6076,1.6073,1.6051,1.6042,1.6039,1.5988,1.6036,1.6033,1.6031,1.603,1.5895,1.5893,0,0,0,0,0,0,1.6102,1.6098,1.6052,1.6051,1.6092,1.6077,1.6075,1.6063,1.6052,1.6053,1.6072,1.6075,1.6046,1.6043,1.6039,1.5975,1.6033,1.603,1.6028,1.5897,1.5894,1.5892,0,0,0,0,0,0,1.6103,1.6098,1.6053,1.6075,1.607,1.6074,1.606,1.6062,1.6053,1.6051,1.6052,1.6062,1.6048,1.6042,1.6004,1.5975,1.6029,1.6026,1.5899,1.5896,1.5893,1.5849,0,0,0,0,0,0,1.6105,1.6098,1.6079,1.6075,1.6069,1.6019,1.6058,1.606,1.6049,1.6053,1.6042,1.6042,1.6049,1.6008,1.6001,1.5972,1.6024,1.5901,1.5898,1.5894,1.5853,1.5845,1.5838,0,0,0,0,0,1.6107,1.6065,1.6077,1.6072,1.6045,1.6018,1.6014,1.6024,1.6046,1.6026,1.6026,1.6042,1.598,1.6003,1.5996,1.5966,1.5903,1.5899,1.5895,1.5856,1.5847,1.5838,0,0,0,0,0,0,1.6062,1.6065,1.6078,1.6034,1.6026,1.6024,1.5998,1.6014,1.5997,1.6001,1.6013,1.601,1.5968,1.5964,1.5989,1.5915,1.5945,1.5939,1.5918,1.5909,1.5902,1.5902,1.6022,0,0,0,0,0,1.6048,1.6028,1.603,1.5991,1.5987,1.5993,1.5982,1.5991,1.5982,1.5977,1.5974,1.5962,1.594,1.5925,1.5905,1.5854,1.5851,1.583,1.5823,1.5817,1.581,1.5782,1.5773,1.5878,1.5878,1.5878,0,0,1.6017,1.6016,1.6001,1.5982,1.5977,1.5953,1.599,1.5963,1.5945,1.5972,1.5936,1.5933,1.5921,1.5876,1.5856,1.5871,1.5781,1.5811,1.5806,1.5803,1.5777,1.5767,1.5758,1.5875,1.5876,1.5876,0,0,1.5948,1.5946,1.5913,1.5908,1.5901,1.5906,1.5898,1.5895,1.5894,1.5859,1.5879,1.5858,1.5819,1.581,1.58,1.5732,1.5745,1.5725,1.5684,1.5657,1.5649,1.5642,1.5615,1.5606,1.5719,1.5719,1.5719,0,1.5909,1.5877,1.5894,1.5867,1.5857,1.5885,1.5851,1.5844,1.5829,1.5821,1.5839,1.5793,1.5787,1.574,1.5724,1.5716,1.5706,1.5724,1.565,1.5642,1.5635,1.561,1.5601,1.5716,1.5717,1.5717,1.5717,0,1.5829,1.5806,1.5781,1.5769,1.5757,1.5726,1.5737,1.5723,1.5734,1.5737,1.57,1.5695,1.5674,1.5665,1.5674,1.5619,1.5629,1.5648,1.5678,1.5623,1.5599,1.559,1.5712,1.5713,1.5714,1.5715,0,0,1.5726,1.5728,1.5718,1.5713,1.5709,1.569,1.5661,1.5644,1.5631,1.5621,1.5595,1.5564,1.5583,1.5572,1.5581,1.5558,1.5503,1.5581,1.558,1.5564,1.544,1.5423,1.5412,1.5514,1.5512,1.5511,1.5441,0,1.5656,1.5609,1.5624,1.5575,1.5554,1.5581,1.5556,1.555,1.5553,1.5534,1.5537,1.5514,1.5541,1.5535,1.5514,1.5514,1.5477,1.552,1.5488,1.5486,1.5487,1.54,1.5382,1.5316,1.5432,1.543,1.5429,0,1.5567,1.5557,1.5506,1.5507,1.5498,1.5475,1.5461,1.5444,1.5437,1.5441,1.5431,1.5446,1.5416,1.545,1.5408,1.5436,1.5425,1.5423,1.5421,1.5415,1.5452,1.539,1.5295,1.5284,1.5415,1.5416,1.5417,0,1.5495,1.5469,1.5435,1.543,1.5431,1.5414,1.5413,1.5409,1.5398,1.5385,1.5378,1.5361,1.5351,1.5338,1.5347,1.5371,1.5303,1.5338,1.5303,1.5303,1.5284,1.5284,1.5183,1.5282,1.5282,1.5282,1.5282,0,1.5414,1.538,1.5403,1.5381,1.5345,1.5365,1.5328,1.533,1.5326,1.5305,1.5328,1.5307,1.5323,1.5303,1.531,1.5274,1.5269,1.527,1.5272,1.5266,1.5266,1.5256,1.5259,1.528,1.528,1.5281,1.5281,0,1.5325,1.5339,1.5304,1.5309,1.5309,1.5282,1.5286,1.5265,1.5272,1.5245,1.5239,1.5248,1.5226,1.5236,1.5212,1.5217,1.517,1.5179,1.5172,1.5173,1.5138,1.514,1.5023,1.5009,1.512,1.5119,1.5118,0,1.527,1.5246,1.525,1.5238,1.5237,1.5218,1.5208,1.5227,1.5215,1.5207,1.5187,1.5169,1.5153,1.5117,1.512,1.5102,1.5109,1.507,1.5106,1.5101,1.5105,1.5105,1.5102,1.5061,1.506,1.5059,1.5058,0,1.5171,1.518,1.5166,1.5154,1.5143,1.5134,1.5127,1.5116,1.5134,1.512,1.5099,1.5088,1.5066,1.5045,1.503,1.5027,1.5044,1.5048,1.5038,1.503,1.5026,1.5026,1.5149,1.5049,1.505,1.505,1.5051,1.5051,1.5096,1.5076,1.5076,1.5059,1.5057,1.5051,1.5032,1.5039,1.5023,1.5007,1.5019,1.4994,1.499,1.4972,1.4967,1.4947,1.4962,1.4948,1.4944,1.494,1.4934,1.5033,1.4944,1.4944,1.4945,1.4945,1.4945,0,1.4995,1.4998,1.4983,1.4974,1.4962,1.4984,1.4978,1.4965,1.4944,1.494,1.4926,1.4902,1.4884,1.4887,1.487,1.4853,1.486,1.4847,1.4847,1.4846,1.4923,1.4932,1.4842,1.4842,1.4842,1.4842,1.4842,1.4842,1.4941,1.4909,1.4918,1.4885,1.4887,1.4865,1.4859,1.4853,1.485,1.4824,1.481,1.4814,1.4812,1.4796,1.4779,1.4781,1.4772,1.4755,1.4759,1.483,1.484,1.485,1.4858,1.4754,1.4754,1.4683,1.4683,1.4682]}]]